Tracking 25963 objects as of 12-Aug-2022
HD Live streaming from Space Station
objects crossing your sky now

MARISAT 1

Track MARISAT 1 now!
MARISAT 1 is classified as:


NORAD ID: 8697
Int'l Code: 1976-017A
Perigee: 36,025.5 km
Apogee: 36,163.1 km
Inclination: 9.1 °
Period: 1,451.5 minutes
Semi major axis: 42465 km
RCS: 5.8066 m2 (large)
Launch date: February 19, 1976
Source: United States (US)
Launch site: AIR FORCE EASTERN TEST RANGE (AFETR)
aabbcc
Your satellite tracking list
Your tracking list is empty




NASA's NSSDC Master Catalog

Two Line Element Set (TLE):
1 08697U 76017A   22223.42132926 -.00000132  00000-0  00000-0 0  9998
2 08697   9.1163 306.5932 0016200 167.8827   3.8146  0.99209180168159
Source of the keplerian elements: AFSPC